Regional Weather Roundup
Issued by NWS

Home | Current Version | Previous Version | Text Only | Print | Product List | Glossary Off
Versions: 1 2 3 4 5 6 7 8 9 10 11 12 13 14 15 16 17 18 19 20 21 22 23 24 25 26 27 28 29 30 31 32 33 34 35 36 37 38 39 40 41 42 43 44 45 46 47 48 49 50

000
ASUS43 KDMX 231706
RWRIA

WEATHER ROUNDUP FOR IOWA
NATIONAL WEATHER SERVICE DES MOINES IA
1200 PM CDT SUN JUL 23 2017

NOTE: "FAIR" INDICATES FEW OR NO CLOUDS BELOW 12,000 FEET WITH NO
SIGNIFICANT WEATHER AND/OR OBSTRUCTIONS TO VISIBILITY.

* - THESE STATIONS ARE NOT NWS STATIONS...THUS NOT UNDER NWS
QUALITY CONTROL.  THEY ALSO DO NOT REPORT WEATHER SUCH
AS PRECIPITATION OR FOG.

IAZ001>003-012>014-020>022-031>034-043>046-231800-
   NORTHWEST IOWA

CITY           SKY/WX    TMP DP  RH WIND       PRES   REMARKS
CARROLL *      SUNNY     81  64  57 NW9       29.96S HX  82
CHEROKEE *     SUNNY     78  63  58 N12       29.99S HX  80
DENISON *      SUNNY     81  63  54 N9        30.00R HX  82
ORANGE CITY *  SUNNY     77  63  61 N8        30.01S
SHELDON *      SUNNY     75  61  60 N12G22    29.99S
SIOUX CITY     SUNNY     84  58  40 N14       29.98F HX  83
SPENCER        SUNNY     78  58  49 N14       29.99R
STORM LAKE *   SUNNY     77  61  57 N9G16     29.99S
$$

IAZ055>058-069>071-079>083-090>094-231800-
   SOUTHWEST IOWA

CITY           SKY/WX    TMP DP  RH WIND       PRES   REMARKS
ATLANTIC *     SUNNY     84  68  58 NW9       29.95F HX  87
AUDUBON *      SUNNY     82  64  54 N10       29.98R HX  84
CLARINDA *     MOSUNNY   84  77  79 NW10      29.97F HX  94
COUNCIL BLFS * SUNNY     86  72  62 NW6       29.97S HX  92
CRESTON *      SUNNY     86  68  54 NW9       29.96S HX  89
HARLAN  *      SUNNY     84  66  54 N10       30.00S HX  86
LAMONI         SUNNY     88  72  58 NW12      29.93S HX  94
RED OAK *      SUNNY     84  73  70 VRB6      29.96S HX  91
SHENANDOAH *   MOSUNNY   82  75  78 NW3       29.96S HX  89
$$

IAZ047>049-059>061-072>074-084-231800-
   CENTRAL IOWA

CITY           SKY/WX    TMP DP  RH WIND       PRES   REMARKS
AMES           SUNNY     82  66  58 NW12      29.92S HX  84
ANKENY *       SUNNY     84  61  45 N14       29.93R HX  84
BOONE *        SUNNY     82  61  47 NW13G20   29.93S HX  83
CHARITON *     SUNNY     88  68  51 NW12      29.92S HX  91
DES MOINES     MOSUNNY   87  59  38 NW14      29.91S HX  86
GRINNELL*      SUNNY     81  66  60 NW13      29.92R HX  83
KNOXVILLE *    SUNNY     86  66  51 NW14      29.90S HX  88
MARSHALLTOWN   SUNNY     83  65  54 NW17      29.90R HX  85
NEWTON *       SUNNY     81  64  57 NW17G23   29.91S HX  82
PELLA *        SUNNY     86  64  48 NW12G21   29.92R HX  87
$$

IAZ004>006-015-016-023>025-035-036-231800-
   NORTH CENTRAL IOWA

CITY           SKY/WX    TMP DP  RH WIND       PRES   REMARKS
ALGONA *       SUNNY     77  61  57 NW14G21   29.97R
CLARION *      MOSUNNY   75  66  73 N10       29.95R
ESTHERVILLE    SUNNY     75  60  59 NW10G23   29.98R
FORT DODGE *   SUNNY     79  63  57 NW8       29.97R HX  80
MASON CITY     SUNNY     76  60  57 NW16      29.95S
FOREST CITY *    N/A     75  59  57 N14G21    29.95S
WEBSTER CITY * SUNNY     79  63  57 N12       29.93S HX  80
IOWA FALLS *     N/A     79  64  59 NW10      29.94S HX  81
$$

IAZ007>011-017>019-026>030-037>042-050>054-066-231800-
   NORTHEAST IOWA

CITY           SKY/WX    TMP DP  RH WIND       PRES   REMARKS
CEDAR RAPIDS   SUNNY     85  68  56 W17G25    29.85S HX  88
CHARLES CITY * SUNNY     77  61  57 NW15G22   29.92R
DECORAH *      SUNNY     79  61  53 NW13      29.87R HX  80
DUBUQUE        SUNNY     83  71  67 W16       29.84F HX  87
MONTICELLO *   SUNNY     84  68  58 W17       29.83F HX  87
OELWEIN *        N/A    N/A N/A N/A MISG        N/A
WATERLOO       SUNNY     81  65  58 NW14G25   29.87S HX  83
$$

IAZ064-065-067-068-078-231800-
   EAST CENTRAL IOWA

CITY           SKY/WX    TMP DP  RH WIND       PRES   REMARKS
DAVENPORT      SUNNY     85  71  63 W13       29.87S HX  90
IOWA CITY      SUNNY     87  71  58 W12       29.87S HX  93
MT. PLEASANT * SUNNY     87  69  53 W10G17    29.88S HX  91
MUSCATINE *    SUNNY     88  72  58 W14G20    29.86S HX  94
QUAD CITIES    SUNNY     88  72  58 W10       29.84F HX  94
$$

IAZ062-063-075>077-085>089-095>099-231800-
   SOUTHEAST IOWA

CITY           SKY/WX    TMP DP  RH WIND       PRES   REMARKS
BURLINGTON     MOSUNNY   88  75  65 W9        29.87S HX  97
FAIRFIELD *    SUNNY     86  72  62 NW12      29.88S HX  92
FORT MADISON * SUNNY     88  73  62 W10       29.89S HX  96
KEOKUK *       MOSUNNY   90  73  58 W10       29.87F HX  98
OSKALOOSA *      N/A     87  67  50 NW13G21   29.90S HX  89
CENTERVILLE *    N/A     90  72  55 W9        29.92F HX  96
OTTUMWA        SUNNY     91  68  46 NW15      29.89S HX  95
WASHINGTON *   SUNNY     86  73  66 NW10G20   29.88F HX  93
$$

ABBREVIATIONS USED IN REMARKS
   TC - TEMPERATURES IN CELSIUS
  WCI - WIND CHILL INDEX
   HX - HEAT INDEX
  VSB - VISIBILITY
$$




USA.gov is the U.S. government's official web portal to all federal, state and local government web resources and services.